Terminal Aerodrome Forecast
Issued by NWS Dallas/Fort Worth, TX

Home | Current Version | Previous Version | Text Only | Print | Product List | Glossary On
Versions: 1 2 3 4 5 6 7 8 9 10 11 12 13 14 15 16 17 18 19 20 21 22 23 24 25 26 27 28 29 30 31
000
FTUS44 KFWD 050520
TAFDFW
TAF
KDFW 050520Z 0506/0612 17012KT P6SM SCT300
      TEMPO 0513/0516 BKN025
     FM051600 19015KT P6SM SCT035 BKN250
     FM061100 17015KT P6SM BKN015=

USA.gov is the U.S. government's official web portal to all federal, state and local government web resources and services.